Precipitable_Water
1.87 1.99 1.95 1.89 1.75 1.52 1.33 1.39 1.26 1.19 1.11 1.06 1.29 1.47 1.65 1.65 1.64 1.61 1.46 1.18 0.91 0.95
1.97 1.92 1.91 1.62 1.42 1.35 1.22 1.13 1.05 0.88 0.84 0.86 0.86 0.87 0.97 1.29 1.33 1.13 0.91 0.81 0.89 0.89
1.81 1.82 1.65 1.41 1.22 1.10 0.96 0.89 0.87 0.82 0.84 0.86 0.83 0.79 0.73 0.76 0.80 0.79 0.76 0.88 0.92 0.91
1.62 1.52 1.34 1.16 1.02 0.96 0.97 0.91 0.88 0.87 0.91 0.89 0.87 0.86 0.78 0.72 0.79 0.74 0.76 0.85 0.88 0.86
1.44 1.38 1.17 1.03 1.01 1.01 0.98 1.04 1.02 1.02 0.99 0.94 0.90 0.87 0.83 0.84 0.88 0.87 0.86 0.94 0.95 0.95
1.33 1.23 1.11 1.07 1.04 1.04 1.03 1.07 1.17 1.12 1.10 1.06 1.03 0.93 0.87 0.87 0.83 0.85 0.91 0.95 0.91 0.94
1.32 1.26 1.22 1.12 1.07 1.05 1.12 1.15 1.21 1.28 1.29 1.24 1.19 1.15 1.08 0.89 0.85 0.83 0.88 0.96 0.94 1.02
1.40 1.32 1.32 1.16 1.10 1.13 1.19 1.27 1.26 1.28 1.28 1.24 1.23 1.21 1.15 1.03 0.94 0.89 0.80 0.77 0.82 0.90
1.44 1.29 1.30 1.27 1.23 1.26 1.28 1.25 1.24 1.29 1.29 1.25 1.24 1.16 1.08 0.98 0.78 0.86 0.87 0.77 0.70 0.64
1.52 1.29 1.26 1.27 1.32 1.35 1.34 1.37 1.33 1.34 1.31 1.23 1.25 1.17 1.06 0.92 0.79 0.73 0.83 0.82 0.72 0.58
1.60 1.41 1.31 1.27 1.30 1.35 1.38 1.38 1.38 1.36 1.29 1.13 1.15 1.11 1.05 0.96 0.83 0.74 0.90 0.95 0.82 0.60
1.63 1.48 1.37 1.30 1.30 1.37 1.41 1.41 1.37 1.32 1.16 1.08 1.08 1.14 1.02 0.91 0.81 0.75 0.87 0.95 0.83 0.63
1.66 1.51 1.41 1.40 1.45 1.51 1.49 1.35 1.27 1.18 1.12 1.11 1.02 0.99 0.91 0.89 0.77 0.70 0.78 0.80 0.70 0.62
1.50 1.43 1.47 1.58 1.65 1.58 1.38 1.21 1.16 1.13 1.02 1.03 1.00 0.94 0.89 0.80 0.64 0.63 0.60 0.63 0.53 0.73
Wind_Speed
7 6 5 6 7 7 7 7 8 7 7 7 8 8 8 7 8 9 11 13 12 11
4 4 4 4 6 6 7 7 6 7 7 7 7 7 8 8 8 9 11 11 10 10
4 2 2 4 5 6 6 7 7 7 7 7 7 8 9 10 11 11 11 11 11 12
4 3 2 3 4 5 6 6 6 7 7 7 8 9 9 10 11 11 12 12 12 13
4 4 3 3 4 4 5 6 6 7 7 8 8 10 10 11 11 12 12 13 13 14
6 5 5 5 5 5 6 7 7 8 8 9 10 10 11 12 12 13 14 14 15 15
8 8 8 7 7 8 8 9 9 10 11 11 12 12 12 13 13 14 15 15 15 16
10 10 10 11 10 10 10 11 12 13 13 13 14 15 14 15 16 16 17 17 17 17
9 11 12 12 12 13 13 14 15 15 15 15 16 16 17 18 19 18 19 17 18 19
10 10 11 12 13 14 15 16 17 17 17 18 18 19 19 20 20 20 20 20 20 20
11 12 12 13 14 15 17 18 18 18 19 20 21 21 21 22 22 21 21 21 22 22
14 14 14 15 16 17 18 19 19 20 21 21 22 22 22 22 23 23 23 23 23 22
15 16 16 17 18 19 20 21 22 21 21 22 21 22 22 23 23 23 23 23 22 22
15 17 18 19 19 20 21 22 21 22 23 23 22 21 22 22 23 23 22 21 21 18
Wind_Direction
226 245 266 292 298 308 309 312 315 314 312 305 300 302 311 304 287 290 295 302 303 299
217 247 270 294 312 313 312 315 316 316 315 310 306 307 303 303 300 301 302 301 304 303
214 224 284 312 324 329 325 316 317 317 314 312 310 306 303 300 301 301 300 298 302 302
217 243 281 318 332 337 343 340 332 324 320 318 316 313 309 305 302 301 298 296 296 298
225 242 268 303 323 334 342 344 344 341 335 329 322 317 313 309 305 301 299 299 298 298
235 250 267 284 299 309 318 326 330 331 330 327 327 324 317 311 307 304 301 299 297 296
249 257 269 278 287 294 301 308 313 315 316 317 319 318 318 317 312 307 303 302 298 295
259 262 269 274 280 287 292 299 305 307 308 310 311 312 309 312 311 308 306 301 299 295
265 266 269 272 275 281 288 295 299 301 303 306 307 307 307 308 308 305 303 301 298 297
269 269 271 274 278 282 287 291 295 296 298 302 303 302 304 306 305 303 300 300 299 297
267 270 274 277 283 286 289 292 293 294 297 298 300 300 301 303 303 301 298 296 298 297
268 274 276 280 284 288 290 290 292 294 296 297 300 298 300 301 301 299 298 294 294 294
270 272 277 283 286 288 289 291 293 295 296 298 299 298 299 300 300 299 298 296 293 288
271 275 279 283 288 290 292 293 295 293 295 295 296 298 299 299 300 300 299 298 295 290